Time,TemperatureF,DewpointF,PressureIn,WindDirection,WindDirectionDegrees,WindSpeedMPH,WindSpeedGustMPH,Humidity,HourlyPrecipIn,Conditions,Clouds,dailyrainin,SolarRadiationWatts/m^2,SoftwareType,DateUTC
2016-12-09 00:00:00,27.0,25.0,30.28,SSW,204,1.0,3.0,92,0.00,,,0.00,0,Wunderground v.1.15,2016-12-09 05:00:00,
2016-12-09 00:05:00,27.0,25.0,30.28,SSW,206,1.0,3.0,92,0.00,,,0.00,0,Wunderground v.1.15,2016-12-09 05:05:00,
2016-12-09 00:10:00,27.1,25.1,30.28,SW,222,2.0,5.0,92,0.00,,,0.00,0,Wunderground v.1.15,2016-12-09 05:10:00,
2016-12-09 00:20:00,27.1,25.1,30.29,SSW,195,2.0,2.0,92,0.00,,,0.00,0,Wunderground v.1.15,2016-12-09 05:20:00,
2016-12-09 00:25:00,27.1,25.1,30.29,SW,219,2.0,2.0,92,0.00,,,0.00,0,Wunderground v.1.15,2016-12-09 05:25:00,
2016-12-09 00:35:00,27.2,25.2,30.29,South,181,2.0,5.0,92,0.00,,,0.00,0,Wunderground v.1.15,2016-12-09 05:35:00,
2016-12-09 00:40:00,27.2,25.2,30.29,SSW,198,2.0,4.0,92,0.00,,,0.00,0,Wunderground v.1.15,2016-12-09 05:40:00,
2016-12-09 00:50:00,27.3,25.3,30.29,SSW,203,2.0,2.0,92,0.00,,,0.00,0,Wunderground v.1.15,2016-12-09 05:50:00,
2016-12-09 00:55:00,27.3,25.5,30.30,SSW,203,2.0,2.0,93,0.00,,,0.00,0,Wunderground v.1.15,2016-12-09 05:55:00,
2016-12-09 01:05:00,27.4,25.4,30.30,SSW,205,2.0,4.0,92,0.00,,,0.00,0,Wunderground v.1.15,2016-12-09 06:05:00,
2016-12-09 01:10:00,27.4,25.6,30.29,SSW,202,1.0,1.0,93,0.00,,,0.00,0,Wunderground v.1.15,2016-12-09 06:10:00,
2016-12-09 01:15:00,27.5,25.7,30.30,SSW,202,1.0,2.0,93,0.00,,,0.00,0,Wunderground v.1.15,2016-12-09 06:15:00,
2016-12-09 01:25:00,27.5,25.7,30.30,SSW,211,1.0,2.0,93,0.00,,,0.00,0,Wunderground v.1.15,2016-12-09 06:25:00,
2016-12-09 01:30:00,27.5,25.7,30.30,SW,225,1.0,1.0,93,0.00,,,0.00,0,Wunderground v.1.15,2016-12-09 06:30:00,
2016-12-09 01:35:00,27.5,25.7,30.30,SW,225,1.0,1.0,93,0.00,,,0.00,0,Wunderground v.1.15,2016-12-09 06:35:00,
2016-12-09 01:45:00,27.5,25.7,30.30,SW,225,0.0,1.0,93,0.00,,,0.00,0,Wunderground v.1.15,2016-12-09 06:45:00,
2016-12-09 01:50:00,27.5,25.7,30.30,SW,225,0.0,0.0,93,0.00,,,0.00,0,Wunderground v.1.15,2016-12-09 06:50:00,
2016-12-09 02:00:00,27.5,25.7,30.31,SW,225,0.0,0.0,93,0.00,,,0.00,0,Wunderground v.1.15,2016-12-09 07:00:00,
2016-12-09 02:05:00,27.5,25.7,30.31,SW,225,0.0,0.0,93,0.00,,,0.00,0,Wunderground v.1.15,2016-12-09 07:05:00,
2016-12-09 02:15:00,27.4,25.6,30.31,SW,225,0.0,0.0,93,0.00,,,0.00,0,Wunderground v.1.15,2016-12-09 07:15:00,
2016-12-09 02:25:00,27.4,25.6,30.31,SW,215,0.0,0.0,93,0.00,,,0.00,0,Wunderground v.1.15,2016-12-09 07:25:00,
2016-12-09 02:30:00,27.4,25.6,30.31,SSW,211,1.0,1.0,93,0.00,,,0.00,0,Wunderground v.1.15,2016-12-09 07:30:00,
2016-12-09 02:35:00,27.4,25.6,30.31,SSW,211,0.0,1.0,93,0.00,,,0.00,0,Wunderground v.1.15,2016-12-09 07:35:00,
2016-12-09 02:50:00,27.5,25.7,30.32,SSW,211,1.0,2.0,93,0.00,,,0.00,0,Wunderground v.1.15,2016-12-09 07:50:00,
2016-12-09 02:55:00,27.5,25.7,30.32,SSW,211,1.0,2.0,93,0.00,,,0.00,0,Wunderground v.1.15,2016-12-09 07:55:00,